Location: Unspecified
(39.0670°S, 0.0000°E)
Time: 13:38:12
(UTC+00:00)

Tiangong 2 - Visible Passes

Search period start: 24 June 2019 00:00
Search period end: 04 July 2019 00:00
Orbit: 376 x 388 km, 42.8° (Epoch: 24 June)

Date Brightness Start Highest point End Pass type
(mag) Time Alt. Az. Time Alt. Az. Time Alt. Az.
24 Jun 1.8 18:19:23 10° WSW 18:22:25 40° S 18:22:31 40° S visible
25 Jun 1.7 17:19:00 10° W 17:22:06 45° S 17:25:08 10° ESE visible
25 Jun 3.4 18:56:00 10° WSW 18:57:18 21° WSW 18:57:18 21° WSW visible
26 Jun 1.8 17:55:43 10° WSW 17:58:46 40° S 17:59:57 28° SE visible
27 Jun 1.7 18:32:14 10° WSW 18:34:51 49° SSW 18:34:51 49° SSW visible
28 Jun 1.5 17:31:59 10° WSW 17:35:05 46° S 17:37:38 14° E visible
28 Jun 3.8 19:08:43 10° WSW 19:09:50 19° W 19:09:50 19° W visible
29 Jun 1.0 18:08:26 10° WSW 18:11:39 87° SSE 18:12:45 38° ENE visible
30 Jun 2.6 18:45:04 10° W 18:47:58 32° NNW 18:48:02 32° NNW visible
01 Jul 1.7 17:44:39 10° WSW 17:47:49 58° NNW 17:50:56 10° NE visible
02 Jul 3.8 18:21:40 10° W 18:23:59 19° NW 18:26:17 10° NNE visible
03 Jul 2.9 17:20:57 10° W 17:23:54 33° NNW 17:26:47 10° NE visible
